DELTA 1 DEB, 2888

Orbit data source: Space-Track

DELTA 1 DEB, 2888 is space debris in LEO originally from a launch on Sat, 06 Nov 1965 UTC launched from the Air Force Eastern Test Range (AFETR). Debris objects in space refer to the collection of defunct objects orbiting the Earth. Examples of debris include non-operational satellites, rocket bodies, and fragments generated from explosions, collisions, or faulty payload assembly.

Loading next visibility...
Identifier
2888, 1965-089D
Orbit
LEO
Last TLE update
2 days ago
Origin
Manufacturer
Unknown
Mission
Spacecraft
Bus & Motor
Unknown
Mass
Unknown
Launch date (UTC)
1965-11-06 (60 years ago)
Launch vehicle
Unknown
Launch site
Air Force Eastern Test Range (AFETR)
Object type
Payload
Rocket body
Debris
Shape & HBR
Unknown
Radar Cross Section
Small (<0.1 m²)

Expand to show TLE details & history

TLE from 2 days ago
0 DELTA 1 DEB
1 02888U 65089D   25180.13990834 -.00000061  00000-0  88067-4 0  9998
2 02888  59.2021  56.0818 0720164  18.2558  58.7706 11.87421966532563
Epoch: 2025-06-29T03:21Z
TLE epoch observation values (Epoch: 2025-06-29T03:21:28.08Z)
Latitude
58.87232°
Longitude
167.40976°
Altitude
1,475.692 km
Speed
7.249 km/s
True Right ascension
09h 00m 58s
True Declination
58° 44' 02"
Sunlit
Object was in daylight at epoch
Visualization orbit readout
Latitude
-13.00566°
Longitude
75.37752°
Altitude
1,248.568 km
Speed
7.447 km/s
Apparent Right ascension
05h 09m 45s
Apparent Declination
-33° 35' 33"
Sunlit
Object is in daylight
Visualization observer readout
Local Sidereal Time
21:04:04
Azimuth
101.584° ESE
Elevation
-43.479°
Doppler factor
1
Orbital elements
Apogee altitude
2,321.522 km
Perigee altitude
1,152.663 km
Semi-major axis
8,115.23 km
Eccentricity
0.07202
Inclination
59.2021°
RAAN
56.0818°
Arg. of periapsis
18.2558°
True anomaly
Unknown
Mean anomaly
58.7706°
Eccentric anomaly
Unknown
Mean motion
2.96888 °/min
Orbital period
121.26 mins
BSTAR
0.000088067
Loading maneuver chart data...
Loading SW <> Apogee altitude chart data...
Loading historical data...
Loading historical data...
Loading historical data...
Loading historical data...
Loading historical data...
Loading historical data...
Loading historical data...

DELTA 1 DEB Visibility forecast

Observer location: undefined°, undefined°

Span
Click to sort rows by Start time (UTC) header in descending order
Start Az.
Max El. time (UTC)
Max El. Az.
Max El.
End time (UTC)
End Az.
8 mins2025-07-01 15:40:47.503Z147.297° SSE2025-07-01 15:44:47.503Z111.196° ESE16.804°2025-07-01 15:48:47.503Z75.719° E
13 mins2025-07-01 17:43:47.503Z223.446° SW2025-07-01 17:49:47.503Z328.786° NNW44.716°2025-07-01 17:56:47.503Z39.103° NE
11 mins2025-07-01 19:52:47.503Z294.021° NW2025-07-01 19:56:47.503Z334.369° NNW24.637°2025-07-01 20:03:47.503Z32.32° NE
12 mins2025-07-01 22:01:47.503Z328.97° NNW2025-07-01 22:06:47.503Z10.127° NNE21.719°2025-07-01 22:13:47.503Z57.62° ENE
18 mins2025-07-02 00:08:47.503Z331.185° NNW2025-07-02 00:15:47.503Z36.11° NE36.728°2025-07-02 00:26:47.503Z109.985° ESE
20 mins2025-07-02 02:14:47.503Z310.928° NW2025-07-02 02:22:47.503Z239.502° WSW41.581°2025-07-02 02:34:47.503Z161.156° S
9 mins2025-07-02 04:24:47.503Z271.232° WNW2025-07-02 04:27:47.503Z254.853° W14.051°2025-07-02 04:33:47.503Z225.234° WSW
|